Miscellaneous Local Product
Issued by NWS North Platte, NE

Home | Current Version | Previous Version | Text Only | Print | Product List | Glossary On
Versions: 1 2 3 4 5 6 7 8 9 10 11 12 13 14 15 16 17 18 19 20 21 22 23 24 25 26 27 28 29 30 31 32 33 34 35 36 37 38 39 40 41 42 43 44 45 46 47 48 49 50
710
AXUS43 KLBF 291010
MISLBF


WESTERN AND NORTH CENTRAL NEBRASKA HOURLY WEATHER ROUNDUP
NATIONAL WEATHER SERVICE NORTH PLATTE NE
500 AM CDT THU SEP 29 2016

NOTE: "FAIR" INDICATES FEW OR NO CLOUDS BELOW 12,000 FEET WITH NO
SIGNIFICANT WEATHER AND/OR OBSTRUCTIONS TO VISIBILITY.

NOTE: STATIONS NOT REPORTING VARIABLES SUCH AS SKY/WEATHER OR
PRESSURE ARE PROVIDED BY RAWS AND APRS NETWORKS AND ARE NOT UNDER
NATIONAL WEATHER SERVICE QUALITY CONTROL.

...OBSERVATIONS IN AND NEAR THE EASTERN PANHANDLE OF NEBRASKA...

CITY           SKY/WX    TMP DP  RH WIND       PRES   REMARKS
PINE RIDGE     CLEAR     51  37  58 SW9       30.35S
CHADRON        CLEAR     57  33  40 S9        30.32F
ALLIANCE       CLEAR     43  35  73 SE5       30.36S
SIDNEY         CLEAR     48  39  71 S9        30.38F
CRESCENT LAKE    N/A     46  40  80 SE5         N/A
$$

...OBSERVATIONS IN NORTHERN NEBRASKA AND FAR SOUTHERN SOUTH DAKOTA...

CITY           SKY/WX    TMP DP  RH WIND       PRES   REMARKS
WINNER         FAIR      46  41  82 S7        30.40R
VALENTINE      CLEAR     41  38  89 CALM      30.40R
THEDFORD       CLOUDY    38  36  94 CALM      30.41S
AINSWORTH      CLOUDY    37  36  99 S6        30.40S WCI  32
O`NEILL        CLOUDY    41  40  95 CALM      30.41S FOG
ORD            CLOUDY    36  33  89 CALM      30.40R
BROKEN BOW     CLOUDY    35  34  96 CALM      30.41R
VALENTINE NWR    N/A     39  38  99 CALM        N/A
BUTTE            N/A     45  42  89 S3          N/A
EWING            N/A     40  39  95 CALM        N/A
$$

...OBSERVATIONS IN SOUTHWEST NEBRASKA AND FAR NORTHEAST COLORADO...

CITY           SKY/WX    TMP DP  RH WIND       PRES   REMARKS
HOLYOKE        FAIR      43  37  81 S3        30.39R
IMPERIAL       CLOUDY    43  36  76 SE3       30.39R
OGALLALA       CLOUDY    43  36  77 CALM      30.38S
NORTH PLATTE   CLOUDY    38  36  92 CALM      30.41R
MCCOOK         CLOUDY    41  36  82 NE3       30.40R
LEXINGTON      CLEAR     39  37  91 NW3       30.41S
STAPLETON        N/A     37  34  90 CALM        N/A
GOTHENBURG       N/A     43  38  82 CALM        N/A
CALLAWAY         N/A     38  36  94 SE3         N/A
$$

...OBSERVATIONS IN CENTRAL LINCOLN COUNTY AREA...

CITY           SKY/WX    TMP DP  RH WIND       PRES   REMARKS
N.P. AIRPORT   CLOUDY    38  36  92 CALM      30.41R
N.P. DOWNTOWN    N/A     42  39  90 CALM        N/A
N.P. SOUTHEAST   N/A     41  38  89 CALM        N/A
N.P. HILLCREST   N/A     44  40  85 SE3         N/A
$$

...SOME OBSERVATIONS FROM AROUND THE REGION...

CITY           SKY/WX    TMP DP  RH WIND       PRES   REMARKS
DENVER         PTCLDY    52  35  52 S15       30.35F
LARAMIE        CLOUDY    49  37  63 S15       30.40F
CHEYENNE       CLOUDY    49  37  63 S6        30.39F
SCOTTSBLUFF    CLEAR     48  39  71 E10       30.35S
RAPID CITY     CLEAR     41  34  76 SE5       30.32S
BISMARCK       CLEAR     44  42  93 SE7       30.39R
PIERRE         CLEAR     41  39  93 SE5       30.38R
SIOUX FALLS    CLOUDY    41  40  96 CALM      30.43R
OMAHA          CLEAR     47  43  86 N7        30.37S
GRAND ISLAND   CLEAR     40  37  89 NW3       30.40R
KANSAS CITY    PTCLDY    49  45  86 N7        30.30R
WICHITA        PTCLDY    52  47  83 N6        30.33R
OKLAHOMA CITY  PTCLDY    56  48  74 NE12      30.28R
DALLAS         PTCLDY    65  49  56 N10       30.17R
AMARILLO       PTCLDY    51  46  83 SE6       30.36R
DODGE CITY     CLOUDY    43  39  86 CALM      30.38R
HAYS           CLOUDY    45  34  65 NW5       30.38R
GOODLAND       CLEAR     50  40  68 S9        30.38S
$$




USA.gov is the U.S. government's official web portal to all federal, state and local government web resources and services.